Regional Weather Roundup
Issued by NWS Charleston, SC

Current Version | Previous Version | Graphics & Text | Print | Product List | Glossary On
Versions: 1 2 3 4 5 6 7 8 9 10 11 12 13 14 15 16 17 18 19 20 21 22 23 24 25 26 27 28 29 30 31 32 33 34 35 36 37 38 39 40 41 42 43 44 45 46 47 48 49 50
000 ASUS42 KCHS 251027 RWRCHS REGIONAL WEATHER ROUNDUP NATIONAL WEATHER SERVICE CHARLESTON SC 600 AM EDT THU MAY 25 2017 NOTE: "FAIR" INDICATES FEW OR NO CLOUDS BELOW 12,000 FEET WITH NO SIGNIFICANT WEATHER AND/OR OBSTRUCTIONS TO VISIBILITY. NOT ALL STATIONS ARE QUALITY CONTROLLED. USE DATA WITH CAUTION... ESPECIALLY DEWPOINT OBSERVATIONS. SCZ027-030-031-034>040-042>050-251100- ...SOUTHEAST SOUTH CAROLINA... CITY SKY/WX TMP DP RH WIND PRES REMARKS N CHARLESTON PTCLDY 66 62 87 W12 29.62R WATERFRONT PRK N/A 69 65 86 W8 29.60R JOHNS ISLAND FAIR 68 63 83 W8 29.64 PINOPOLIS N/A 68 66 94 SW13 29.51R MONCKS CORNER PTSUNNY 63 61 94 SW8 29.62R SUMMERVILLE PTSUNNY 63 61 94 SW8 29.64 BEAUFORT MCAS CLEAR 65 61 87 W14 29.65R BEAUFORT ARPT FAIR 64 59 82 W15 29.65 HILTON HEAD IS NOT AVBL WALTERBORO SUNNY 63 59 88 W10 29.65R ALLENDALE FAIR 61 61 100 CALM 29.64R ...SOUTHERN MIDLANDS AND PEE DEE... CITY SKY/WX TMP DP RH WIND PRES REMARKS GEORGETOWN FAIR 64 63 94 SW5 29.61 KINGSTREE FAIR N/A N/A N/A SW6 29.59 ORANGEBURG PTCLDY 64 62 93 W12 29.62R BARNWELL FAIR 63 61 94 SW6 29.64R AIKEN FAIR 55 55 100 SW5 29.65 MANNING PTSUNNY 64 64 100 W22 29.61 COLUMBIA CLEAR 61 58 90 SW8 29.59R SUMTER PTCLDY 63 61 94 SW14 29.57R FLORENCE PTCLDY 64 63 96 SW7 29.57R MYRTLE BEACH PTCLDY 68 66 94 SW6 29.58S N MYRTLE BEACH CLEAR 69 66 90 SW10 29.57R $$ GAZ063-065-086>088-099>101-113>116-118-119-134>141-150-251100- ...SOUTHEAST GEORGIA... CITY SKY/WX TMP DP RH WIND PRES REMARKS SAVANNAH ARPT PTCLDY 63 59 87 SW7 29.67R HUNTER AAF CLEAR 64 64 100 SW6 29.65R FORT STEWART CLEAR 62 58 88 S5 29.66R STATESBORO CLEAR 61 61 100 W3 29.66S SYLVANIA SUNNY 61 61 100 CALM 29.67R CLAXTON FAIR N/A N/A N/A SW3 29.68R ...CSRA...CENTRAL AND FAR SOUTHEAST GEORGIA... CITY SKY/WX TMP DP RH WIND PRES REMARKS THOMSON CLEAR 57 55 91 NW7 29.68R AUGUSTA-BUSH CLEAR 61 58 90 SW10 29.62R AUGUSTA-DANIEL CLEAR 60 55 83 SW6 29.62R SWAINSBORO FAIR 57 57 100 CALM 29.67S VIDALIA NOT AVBL EASTMAN CLOUDY 61 52 73 W5 29.72R HAZLEHURST FAIR 61 61 100 SW5 29.69R ALMA MOCLDY 62 59 90 SW5 29.70R WAYCROSS CLOUDY 65 65 100 SW5 29.72R JESUP CLOUDY 63 61 94 SW3 29.72R BAXLEY FAIR 61 61 100 CALM 29.70R BRUNSWICK PTCLDY 64 63 94 SW7 29.73R SAINT SIMONS CLEAR 67 62 84 SW8 29.70R $$ SCZ027-028-034-036>038-045-046-048>050-GAZ119-141-251100- ...LAKE AND SUPPLEMENTAL COASTAL OBSERVATIONS... STATION/POSITION TIME TEMP WIND PRES WAVE SWELL AIR SEA DIR/SP/G HT/PER HT/PER/DIR (UTC) (F) (DEG/KT/KT) (MB) (FT/S) (FT/S/D) WINYAH BAY 0945 69 240/ 9 1002.0R LAKE MURRAY 0950 63 240/ 13/ 17 1001.0R ACE BASIN NERRS 0945 66 240/ 5 1004.0R FORT PULASKI 1000 66 260/ 9/ 12 1005.1 SAPELO ISLAND 1000 68 240/ 11 1006.0 $$ ANZ835-935-AMZ111-154-330-350-352-354-370-450-454-472-251100- ...C-MAN AND BUOY OBSERVATIONS... STATION/POSITION TIME TEMP WIND PRES WAVE SWELL AIR SEA DIR/SP/G HT/PER HT/PER/DIR (UTC) (F) (DEG/KT/KT) (MB) (FT/S) (FT/S/D) BUOY 41004 1010 73 76 240/ 23/ 27 1003.0 BUOY 41008 0950 71 77 260/ 21/ 25 1004.5R 6/ 6 FOLLY BEACH CMAN 1000 68 250/ 8/ 13 1003.8R CAPERS NEARSHORE 1008 75 77 260/ 19/ 25 1002.4R FRIPP NEARSHORE 1008 70 77 260/ 19/ 27 1003.4R STATION/POSITION TIME TEMP WIND PRES WAVE SWELL AIR SEA DIR/SP/G HT/PER HT/PER/DIR (UTC) (F) (DEG/KT/KT) (MB) (FT/S) (FT/S/D) 5E ST. MARYS GA 1000 78 N/A 3/ 6 FRYING PAN BUOY 1010 76 76 230/ 25/ 31 1001.9 BUOY 41025 0950 77 78 220/ 25/ 31 1000.9F 5/ 6 2/190/ 8 CAPE LOOKOUT NC 1000 75 230/ 13/ 18 1000.9R BUOY 41002 0950 76 77 190/ 27/ 31 1007.3R 11/ 8 BUOY 41010 1010 80 78 210/ 17/ 23 1008.9 ST AUGUSTINE FL 1000 69 76 250/ 3/ 5 1008.1R $$

USA.gov is the U.S. government's official web portal to all federal, state and local government web resources and services.